Location: Observatoire de La Sitelle
(46.0500°N, 74.2167°W)
Time: 05:02:59
(UTC-05:00)

N. Korean satellite - Visible Passes

Search period start: 20 February 2018 00:00
Search period end: 02 March 2018 00:00
Orbit: 459 x 514 km, 97.2° (Epoch: 19 February)

Date Brightness Start Highest point End Pass type
(mag) Time Alt. Az. Time Alt. Az. Time Alt. Az.
20 Feb 10.5 05:29:16 10° ENE 05:30:18 11° E 05:31:21 10° ESE visible
21 Feb 10.0 18:50:24 10° SW 18:52:24 15° W 18:54:26 10° NW visible
22 Feb 8.6 06:13:13 10° NNE 06:16:38 36° E 06:20:05 10° SSE visible
22 Feb 9.0 18:25:30 10° SSW 18:28:29 27° W 18:31:32 10° NW visible
23 Feb 9.8 05:50:01 10° NE 05:52:46 20° E 05:55:33 10° SE visible
23 Feb 7.4 18:01:15 10° S 18:04:38 54° W 18:08:06 10° NNW visible
24 Feb 10.6 05:27:52 10° ENE 05:28:48 11° E 05:29:46 10° ESE visible
25 Feb 10.0 18:48:45 10° SW 18:50:52 15° W 18:53:01 10° NW visible
26 Feb 8.7 06:11:42 10° NNE 06:15:08 35° E 06:18:35 10° SSE visible
26 Feb 8.9 18:23:53 10° SSW 18:26:56 28° W 18:30:03 10° NW visible
27 Feb 9.9 05:48:30 10° NE 05:51:15 19° E 05:54:00 10° SE visible
28 Feb 10.7 05:26:27 10° ENE 05:27:17 11° E 05:28:05 10° ESE visible
01 Mar 9.9 18:47:02 10° SW 18:49:17 16° W 18:51:33 10° NW visible
